GW0143 Weather Reports


time (UTC)temp
C
wind
direction
speed
KPH
gust
KPH
rain 1hr
cm
rain 24hr
cm
rain mn
cm
humidity
%
barometer
mb
20260906035601 17 4 6.4 11.3 0.00 0.00 0.00 53 1027.4
20260906034521 17 155 8.0 9.7 0.00 0.00 0.00 51 1027.2
20260906033522 17 152 11.3 12.9 0.00 0.00 0.00 50 1027.0
20260906032522 17 159 8.0 12.9 0.00 0.00 0.00 51 1027.0
20260906031542 17 140 6.4 8.0 0.00 0.00 0.00 50 1027.0
20260906030519 18 141 6.4 8.0 0.00 0.00 0.00 49 1026.9
20260906025519 18 122 4.8 8.0 0.00 0.00 0.00 48 1026.8
20260906024600 18 135 4.8 8.0 0.00 0.00 0.00 48 1026.7
20260906023520 18 137 4.8 6.4 0.00 0.00 0.00 49 1026.4
20260906022600 19 144 4.8 6.4 0.00 0.00 0.00 48 1026.3
20260906021523 19 176 6.4 9.7 0.00 0.00 0.00 45 1026.2
20260906020537 20 178 6.4 9.7 0.00 0.00 0.00 44 1026.0
20260906015517 20 201 6.4 8.0 0.00 0.00 0.00 43 1026.0
20260906014518 21 208 8.0 11.3 0.00 0.00 0.00 42 1025.9
20260906013524 21 209 6.4 9.7 0.00 0.00 0.00 41 1025.9
20260906012544 22 185 6.4 8.0 0.00 0.05 0.00 40 1025.8
20260906011518 22 173 8.0 11.3 0.00 0.05 0.00 39 1025.6
20260906010518 22 179 11.3 16.1 0.00 0.08 0.00 38 1025.6
20260906005518 23 181 11.3 16.1 0.00 0.08 0.00 37 1025.5
20260906004519 23 177 9.7 16.1 0.00 0.08 0.00 36 1025.5
20260906003519 24 171 12.9 16.1 0.00 0.08 0.00 35 1025.5
20260906002519 23 180 14.5 22.5 0.00 0.08 0.00 35 1025.4
20260906001519 24 179 14.5 19.3 0.00 0.08 0.00 35 1025.2
20260906000520 25 173 20.9 29.0 0.00 0.08 0.00 33 1025.1
20260905235520 25 168 17.7 27.4 0.00 0.08 0.00 32 1025.1
20260905234520 25 176 20.9 29.0 0.00 0.08 0.00 32 1025.0
20260905233520 26 186 17.7 29.0 0.00 0.08 0.00 30 1025.1
20260905232520 26 167 11.3 20.9 0.00 0.08 0.00 28 1025.0
20260905231517 26 191 11.3 22.5 0.00 0.08 0.00 30 1025.0
20260905230517 26 106 12.9 27.4 0.00 0.08 0.00 30 1025.1
20260905225520 26 55 16.1 25.7 0.00 0.08 0.00 32 1025.1
20260905224518 25 57 17.7 25.7 0.00 0.08 0.00 32 1025.2
20260905223518 25 47 25.7 33.8 0.00 0.08 0.00 33 1025.1
20260905222538 25 46 19.3 27.4 0.00 0.08 0.00 34 1025.1
20260905221518 26 151 8.0 16.1 0.00 0.08 0.00 22 1025.2
20260905220519 26 164 11.3 16.1 0.00 0.08 0.00 24 1025.2
20260905215519 26 173 12.9 17.7 0.00 0.08 0.00 24 1025.3
20260905214519 26 222 9.7 17.7 0.00 0.08 0.00 24 1025.4
20260905213522 27 155 6.4 12.9 0.00 0.08 0.00 26 1025.5
20260905212522 27 182 8.0 16.1 0.00 0.08 0.00 25 1025.6
20260905211519 26 189 12.9 20.9 0.00 0.08 0.00 27 1025.7
20260905210520 26 171 11.3 24.1 0.00 0.08 0.00 28 1025.7
20260905205520 27 199 12.9 25.7 0.00 0.08 0.00 27 1025.8
20260905204520 27 167 9.7 20.9 0.00 0.08 0.00 26 1025.8
20260905203518 26 171 12.9 22.5 0.00 0.08 0.00 28 1025.9
20260905202518 27 131 9.7 20.9 0.00 0.08 0.00 27 1026.1
20260905201521 26 172 12.9 22.5 0.00 0.08 0.00 28 1026.2
20260905200518 26 138 8.0 19.3 0.00 0.08 0.00 29 1026.3
20260905195538 27 184 16.1 24.1 0.00 0.08 0.00 28 1026.3
20260905194518 27 278 8.0 17.7 0.00 0.08 0.00 27 1026.5
20260905193518 26 124 6.4 12.9 0.00 0.08 0.00 29 1026.6
20260905192519 26 166 14.5 24.1 0.00 0.08 0.00 29 1026.7
20260905191518 26 150 4.8 11.3 0.00 0.08 0.00 30 1026.8
20260905190519 25 203 12.9 22.5 0.00 0.08 0.00 31 1026.9
20260905185519 26 183 11.3 19.3 0.00 0.08 0.00 31 1027.0
20260905184519 25 280 4.8 9.7 0.00 0.08 0.00 31 1027.1
20260905183600 25 293 6.4 14.5 0.00 0.08 0.00 31 1027.3
20260905182520 25 302 8.0 12.9 0.00 0.08 0.00 31 1027.4
20260905181520 25 177 6.4 14.5 0.00 0.08 0.00 32 1027.5
20260905180520 25 209 9.7 19.3 0.00 0.08 0.00 32 1027.6
20260905175520 24 205 4.8 12.9 0.00 0.08 0.00 32 1027.7
20260905174521 24 202 8.0 14.5 0.00 0.08 0.00 32 1027.7
20260905173521 24 188 6.4 9.7 0.00 0.08 0.00 32 1027.8
20260905172521 23 44 3.2 14.5 0.00 0.08 0.00 32 1027.9
20260905171523 23 32 6.4 11.3 0.00 0.08 0.00 33 1027.9
20260905170530 23 270 3.2 8.0 0.00 0.08 0.00 34 1028.0
20260905165551 23 58 3.2 6.4 0.00 0.08 0.00 33 1027.9
20260905164521 23 53 3.2 8.0 0.00 0.08 0.00 35 1028.0
20260905163551 22 317 3.2 6.4 0.00 0.08 0.00 36 1028.1
20260905162542 22 45 3.2 8.0 0.00 0.08 0.00 39 1028.1
20260905161522 22 198 3.2 11.3 0.00 0.08 0.00 40 1028.1
20260905160531 21 251 1.6 3.2 0.00 0.08 0.00 41 1028.2
20260905155531 20 118 3.2 6.4 0.00 0.08 0.00 44 1028.2
20260905154517 20 352 1.6 4.8 0.00 0.08 0.00 46 1028.1
20260905153531 18 15 1.6 3.2 0.00 0.08 0.00 49 1028.1
20260905152532 17 54 1.6 4.8 0.00 0.08 0.00 53 1028.3
20260905151552 17 46 1.6 4.8 0.00 0.08 0.00 53 1028.3
20260905150532 17 344 4.8 6.4 0.00 0.08 0.00 54 1028.3
20260905145532 16 338 3.2 4.8 0.00 0.08 0.00 57 1028.5
20260905144518 16 301 1.6 3.2 0.00 0.08 0.00 60 1028.5
20260905143518 16 262 3.2 4.8 0.00 0.08 0.00 59 1028.4
20260905142518 15 241 4.8 8.0 0.00 0.08 0.00 61 1028.3
20260905141518 15 237 3.2 6.4 0.00 0.08 0.00 62 1028.3
20260905140518 15 245 3.2 4.8 0.00 0.08 0.00 61 1028.2
20260905135519 15 228 3.2 6.4 0.00 0.08 0.00 63 1028.1
20260905134519 14 174 3.2 4.8 0.00 0.08 0.00 65 1028.0
20260905133519 14 156 3.2 4.8 0.00 0.08 0.00 69 1028.0
20260905132519 14 137 1.6 3.2 0.00 0.08 0.00 66 1027.9
20260905131520 14 237 4.8 6.4 0.00 0.08 0.00 68 1027.8
20260905130520 14 179 8.0 9.7 0.00 0.08 0.00 66 1027.6
20260905125520 14 191 4.8 6.4 0.00 0.08 0.00 67 1027.5
20260905124519 15 236 3.2 6.4 0.00 0.08 0.00 66 1027.4
20260905123521 15 184 6.4 9.7 0.00 0.08 0.00 60 1027.1
20260905122520 15 149 8.0 11.3 0.00 0.08 0.00 60 1027.0
20260905121521 15 153 9.7 11.3 0.00 0.08 0.00 60 1027.0
20260905120521 15 153 9.7 11.3 0.00 0.08 0.00 59 1027.0
20260905115521 15 149 9.7 11.3 0.00 0.08 0.00 59 1027.0
20260905114521 15 149 8.0 11.3 0.00 0.08 0.00 61 1027.1
20260905113541 15 148 8.0 11.3 0.00 0.08 0.00 61 1027.1
20260905112522 15 158 9.7 12.9 0.00 0.08 0.00 62 1027.2
20260905111542 15 152 11.3 14.5 0.00 0.08 0.00 61 1027.0
20260905110522 14 151 9.7 14.5 0.00 0.08 0.00 62 1027.0
20260905105522 14 154 9.7 12.9 0.00 0.08 0.00 63 1027.0
20260905104542 14 154 9.7 11.3 0.00 0.08 0.00 62 1027.0
20260905103523 14 159 9.7 12.9 0.00 0.08 0.00 63 1026.9
20260905102517 14 159 9.7 12.9 0.00 0.08 0.00 62 1026.9
20260905101517 15 130 6.4 8.0 0.00 0.08 0.00 63 1026.9
20260905100524 15 146 8.0 11.3 0.00 0.08 0.00 63 1026.8
20260905095603 15 153 8.0 11.3 0.00 0.08 0.00 62 1026.9
20260905094518 15 156 11.3 14.5 0.00 0.08 0.00 61 1026.9
20260905093518 15 161 12.9 16.1 0.00 0.08 0.00 61 1026.9
20260905092518 15 157 12.9 16.1 0.00 0.08 0.00 62 1026.9
20260905091518 15 157 12.9 16.1 0.00 0.08 0.00 62 1027.0
20260905090521 15 153 12.9 17.7 0.00 0.08 0.00 63 1027.0
20260905085538 15 160 11.3 14.5 0.00 0.08 0.00 64 1027.0
20260905084519 14 163 12.9 16.1 0.00 0.08 0.00 65 1027.0
20260905083519 13 188 11.3 14.5 0.00 0.08 0.00 70 1027.1
20260905082519 14 183 12.9 19.3 0.00 0.08 0.00 66 1027.0
20260905081519 14 163 9.7 12.9 0.00 0.08 0.00 65 1027.1
20260905080559 14 180 12.9 17.7 0.00 0.08 0.00 64 1027.1
20260905075519 14 163 12.9 17.7 0.00 0.08 0.00 64 1027.1
20260905074519 13 158 12.9 16.1 0.00 0.08 0.00 66 1027.1
20260905073520 13 159 9.7 12.9 0.00 0.08 0.00 69 1027.1
20260905072520 13 162 11.3 12.9 0.00 0.08 0.00 68 1027.1
20260905071520 13 159 12.9 16.1 0.00 0.08 0.00 68 1027.1
20260905070518 14 162 11.3 16.1 0.00 0.08 0.00 67 1027.0
20260905065521 14 156 11.3 14.5 0.00 0.08 0.00 64 1027.0
20260905064521 14 178 9.7 12.9 0.00 0.08 0.00 67 1027.0
20260905063521 15 144 9.7 12.9 0.00 0.08 0.00 63 1026.9
20260905062541 14 157 9.7 14.5 0.00 0.08 0.00 64 1026.9
20260905061522 14 153 9.7 12.9 0.00 0.08 0.00 64 1026.8
20260905060521 14 160 11.3 14.5 0.00 0.08 0.00 64 1026.8
20260905055522 15 167 11.3 16.1 0.00 0.08 0.08 62 1026.8
20260905054522 15 161 11.3 14.5 0.00 0.08 0.08 60 1026.7
20260905053522 14 153 8.0 9.7 0.00 0.08 0.08 61 1026.7
20260905052522 13 141 6.4 9.7 0.00 0.08 0.08 64 1026.8
20260905051549 13 143 6.4 8.0 0.00 0.08 0.08 64 1026.9
20260905050517 13 135 6.4 9.7 0.00 0.08 0.08 64 1027.0
20260905045517 14 147 6.4 9.7 0.00 0.08 0.08 63 1027.0
20260905044517 14 151 8.0 11.3 0.00 0.08 0.08 63 1027.0
20260905043523 15 153 8.0 11.3 0.00 0.08 0.08 63 1027.0
20260905042524 14 151 8.0 12.9 0.00 0.08 0.08 65 1027.0
20260905041518 14 153 8.0 11.3 0.00 0.08 0.08 67 1027.1
20260905040518 13 154 8.0 11.3 0.00 0.08 0.08 71 1027.1